Location: Unspecified
(0.0000°N, 0.0000°E)
Time: 17:48:46
(UTC+00:00)

STARLINK 1044 - Pass Details

Date: 19 January 2020
Orbit: 443 x 445 km, 53.0° (Epoch: 18 January)

Event Time Altitude Azimuth Distance (km) Brightness Sun altitude
Rises 18:33:46 0° 261° (W) 2,426 9.1 -5.5°
Enters shadow 19:02:50 -46° 136° (SE) 9,813 9.9 -12.3°
Exits shadow 19:14:21 -65° 111° (ESE) 12,084 10.4 -15.0°
Maximum altitude 04:39:32 56° 124° (SE) 530 3.8 -21.2°
